AQI (35)

Current Conditions for Foresthill, CA. Sunny, Dry   
Visibility: 10 miles
Space WX Alerts: CONTINUED ALERT:  Electron 2MeV Integral Flux exceeded 1000pfu ( Latest Alert ) - Issue Time: 2018 Apr 23 0901 UTC

  Summary / Temperature 

Current Temperature
56.4°F
13.6°C
(24/hr Ago)
55.7°F
(Apparent temp)
50.8°F
Cool
Wind Chill Graphs
54.9°F 

56.4°F/ 13.6°C
 --- Virtual Temp: 58.0°F ---

 Temp Rate:

 24/hr Difference:

 Avg Running Temp:

 Todays High:

 Todays Low:

 Y-days High:

 Y-days Low:

 Todays WChill:

 Y-days WChill:

 Evapotranspiration:

+0.3°F/hr 

+0.7°F

55.4°F

57.7°F 12:23am

54.6°F 6:55am

74.7°F 1:28pm

53.4°F 6:15am

50.1°F 6:32am

48.5°F 6:38am

0.024 in

115' Above Ground

 Temperature:

 6'AGL VRS 115'AGL:

 Avg Running Temp:

 Humidity:

 Todays High:

 Todays Low:

 Y-days High:

 Y-days Low:

62.0°F 

+5.6°F

59.5°F

32% 

62.0°F 8:16am

57.0°F 6:01am

74.0°F 12:42pm

56.0°F 5:08am

Temp & Humidity Graphs

  Wind 

Wind Speed

 4.0 mph

Gusting to

 13.0 mph

Wind from ESE

109°  ESE

Light breeze

 Avg speed:

 Wind Run:

 Peak Gust:

  5.0 mph 

51.0 miles

  19.0 mph 2:30am

  Almanac  

Moon age: 8 days,3 hours,54 minutes,58%

Waxing Gibbous
58%
Illuminated
8 days in cycle

 Moonrise:

 Moonset:

 Sunrise:

 Sunset:

 Solar Noon:

1:14pm

2:44am

6:13am

7:46pm

1:02pm

2min 19s more daylight tomorrow 

  Solar Radiation 

(Current Solar)
  364 W/m2 (96%)
(Todays High)
 369 W/m2@8:20am
Feels like: 59.9°F in the sun

Rain

 Rain Today:

 Rain Rate (/hr):

 Rain last hour:

 Rain Yesterday:

 This Month:

 Season Total:

5 Days Since Last Rain Day

0.00 in

0.000 in

0.00 in

0.00 in

4.71 in

41.88 in

Updated Time

Updated: 4/23/18  8:22am

(Updated  sec ago)

Humidity & Barometer

 Humidity:

 Wetbulb:

 Dew Point:

 Barometer:

48% 

47.8°F 

36.9°F 

29.997 inHg 

 Baro Trend:  Steady 
Northern Calif
Preparedness
Fire 
Level 

    UV Index  

(Current UV)
1.0  Low
(Todays High) @ 8:19am
1.0   Low

National Weather Service Forecast

Today

Today: Sunny
Sunny
Tonight

Tonight: Partly Cloudy
Partly Cloudy
Tuesday

Tuesday: Sunny
Sunny
Tuesday
Night
Tuesday Night: Mostly Clear
Mostly Clear
Wednesday

Wednesday: Sunny
Sunny
Wednesday
Night
Wednesday Night: Mostly Clear
Mostly Clear
Hi 79 °F Lo 53 °F Hi 77 °F Lo 55 °F Hi 77 °F Lo 53 °F

Foresthill Probe 2 Stats  
Foresthill Probe 2: is located on Thomas Street
at 3000 feet. The main Foresthill Weather site
is located on Melody ln at the 2860 foot elevation

Light Air
57.6°F
14.2°C
Temp Rate:
+1.7°F
2.0 mph
Gusting to
4.0 mph
(Humidity)
40%
Wind from SE
132°  SE
Updated: 23/04/18 - 08:18:14
 Todays High: 57.6°F 08:17
 Todays Low: 51.7°F 06:14
 Rain Today: 0.00 in
 Season Total: 44.24 in

Foresthill Wx: Monthly,Yearly, Highs and Lows 

Foresthill  
This Weather Data is coming from the main Foresthill
Weather site located on Melody ln at the 2860 foot
elevation
Not Foresthill Probe 2
Weather Data
Month
  High
Month
  Low
Year
High
Year
Low
Temp 74.7°F
4/22/18
31.8°F
4/17/18
74.7°F
4/22/18
21.9°F
2/23/18
Humidity 100%
4/12/18
16%
4/4/18
100%
1/8/18
15%
2/10/18
Heat Index 74.6°F
4/22/18
38.1°F
4/13/18
74.6°F
4/22/18
27.1°F
2/20/18
Wind Chill 74.7°F
4/22/18
25.0°F
4/17/18
74.7°F
4/22/18
9.2°F
2/23/18
Wind Gust 28 mph
4/6/18
0 mph
4/1/18
43 mph
3/1/18
0 mph
1/1/18
Barometer 30.46 in
4/13/18
29.82 in
4/15/18
30.55 in
1/27/18
29.63 in
1/9/18
ET 0.18 in
4/22/18
0.00 in
4/1/18
0.18 in
4/22/18
0.00 in
1/1/18
Dew Point 55.4°F
4/9/18
18.7°F
4/4/18
55.4°F
4/9/18
7.6°F
2/11/18
Pacific Satellite US Radar Satellite Imagery Sacramento,CA.  (click to enlarge)
NWS Weather Forecast - Summary
Updated: Monday, April 23, 2018 - 2:26am PDT
Current Interstate Highway Conditions for I-80 & US-50

[I 80: IN THE SAN FRANCISCO BAY AREA - SOLANO CO]
no traffic restrictions are reported for this area.

[I 80: IN THE NORTHERN CALIFORNIA AREA & SIERRA NEVADA]
no traffic restrictions are reported for this area.

[US 50: IN THE SACRAMENTO VALLEY & THE LAKE TAHOE BASIN]
no traffic restrictions are reported for this area.
NWS Weather Forecast: Today and Tonight (Updated: Mon, 23-Apr-2018 2:07am PDT)
Today

Today: Sunny
Sunny

Hi 79 °F
NWS forecast: Sunny. High near 79, with temperatures falling to around 75 in the afternoon. South southeast wind around 9 mph.
Tonight

Tonight: Partly Cloudy
Partly Cloudy

Lo 53 °F
NWS forecast: Partly cloudy, with a low around 53. North northeast wind around 10 mph.
YR.NO 10 Day Weather forecast
Last update: 04/23/2018 @ 00:39
Next update: 04/23/2018 @ 13:00
Provided by: 22
      Temperature Precipitation Pressure Wind  
Today
04/23/2018
06:00 12:00 45°F   29.95 inHg Gentle breeze from east-northeast 8 mph
  12:00 18:00 72°F   29.98 inHg Light breeze from south-southwest 6 mph
  18:00 00:00 70°F   29.92 inHg Light air from west-southwest 2 mph
    (Click to enlarge)
meteogram

    Forecast for next 9 days

      Temperature Precip Pressure Wind  
Tuesday
04/24/2018
00:00 06:00 48°F   29.96 inHg Light breeze from east-northeast 6 mph
  06:00 12:00 46°F   29.94 inHg Gentle breeze from east-northeast 8 mph
  12:00 18:00 75°F   29.95 inHg Light breeze from west-southwest 7 mph
  18:00 00:00 70°F   29.94 inHg Light air from west-southwest 3 mph
      Temperature Precip Pressure Wind  
Wednesday
04/25/2018
00:00 06:00 48°F   29.98 inHg Light breeze from east-northeast 4 mph
  06:00 12:00 45°F   29.97 inHg Light breeze from east-northeast 5 mph
  12:00 18:00 73°F   30.00 inHg Light breeze from west-southwest 5 mph
  17:00 23:00 73°F   29.95 inHg Light breeze from west-southwest 6 mph
  23:00 05:00 54°F   29.99 inHg Light air from east-northeast 2 mph
      Temperature Precip Pressure Wind  
Thursday
04/26/2018
05:00 11:00 45°F   29.97 inHg Light breeze from east-northeast 5 mph
  11:00 17:00 70°F   29.95 inHg Light breeze from west-southwest 5 mph
  17:00 23:00 70°F   29.90 inHg Light breeze from southwest 6 mph
  23:00 05:00 52°F   29.94 inHg Light air from southeast 2 mph
      Temperature Precip Pressure Wind  
Friday
04/27/2018
05:00 11:00 43°F   29.95 inHg Light breeze from southeast 4 mph
  11:00 17:00 57°F   30.01 inHg Light breeze from south-southwest 6 mph
  17:00 23:00 57°F   29.96 inHg Gentle breeze from south-southwest 8 mph
  23:00 05:00 43°F   30.04 inHg Light breeze from southeast 5 mph
      Temperature Precip Pressure Wind  
Saturday
04/28/2018
05:00 11:00 37°F   29.99 inHg Light breeze from east 4 mph
  11:00 17:00 52°F 0.03 in 29.95 inHg Light breeze from southwest 6 mph
  17:00 23:00 48°F 0.07 in 29.90 inHg Light breeze from southwest 7 mph
  23:00 05:00 41°F   29.94 inHg Light breeze from east-southeast 5 mph
      Temperature Precip Pressure Wind  
Sunday
04/29/2018
05:00 11:00 39°F 0.07 in 29.97 inHg Light breeze from south-southeast 6 mph
  11:00 17:00 41°F 0.29 in 29.99 inHg Gentle breeze from south-southwest 9 mph
  17:00 23:00 41°F   30.02 inHg Light breeze from south-southeast 7 mph
  23:00 05:00 41°F   30.05 inHg Light breeze from east 4 mph
      Temperature Precip Pressure Wind  
Monday
04/30/2018
05:00 11:00 41°F   30.07 inHg Light air from southeast 2 mph
  11:00 17:00 52°F   30.04 inHg Light breeze from southwest 5 mph
  17:00 23:00 52°F   30.01 inHg Light breeze from south-southwest 6 mph
  23:00 05:00 39°F   30.04 inHg Light breeze from southeast 4 mph
      Temperature Precip Pressure Wind  
Tuesday
05/01/2018
05:00 11:00 36°F   30.00 inHg Light breeze from southeast 4 mph
  11:00 17:00 52°F   30.01 inHg Gentle breeze from south-southwest 8 mph
  17:00 23:00 54°F   29.98 inHg Light breeze from south-southwest 7 mph
  23:00 05:00 37°F   30.06 inHg Light breeze from east-southeast 4 mph
      Temperature Precip Pressure Wind  
Wednesday
05/02/2018
05:00 11:00 37°F   30.04 inHg Light breeze from east 4 mph
  11:00 17:00 50°F   30.11 inHg Light air from south-southwest 3 mph
How Close Are We To this Month's Temperature Record ?
Updated Monday, Apr 23, 2018- 8:15:01 AM

Current Temperature: 56.4°F

April's High: Temperature Record 83.2°F - Set on Sun, Apr 22, 2012 - 2:12:00 PM
We are currently 26.8°F Less than this Month's record High

April's Low: Temperature Record 31.4°F - Set on Thu, Apr 5, 2012 - 6:23:00 AM
We are currently 25°F More than this Month's record Low

Weather History For Monday, April 23, 2018


On this Day - In Weather History ...
Data courtesy of weatherforyou.com
powered by Cumulus v1.9.3 (1059)
Ambient Weather VWS v14.00
Top Contact Website Map Copyright © 2007 - 2018 Foresthillweather.com Never base important decisions on this or any weather information obtained from the Internet